Simultaneous Nadir Overpasses (SNOs) Predictions

Prediction of SNOs between GOES-15 and NPP Satellite Orbit:

Table of predicted SNOs for the next 14.0 days since TLE Epoch: 7/13/2012
Index Date Time (GOES-15) GOES-15 Lat,Lon NPP Lat,Lon Distance(km) Time Diff (sec)
1 07/13/2012 10:12:51 -0.27,-135.39 -0.96,-132.19 363.32 80
2 07/14/2012 22:32:08 0.29,-135.38 -0.18,-137.51 242.30 80
3 07/15/2012 22:16:03 0.29,-135.39 0.83,-132.98 274.47 80
4 07/17/2012 10:35:12 -0.31,-135.40 0.35,-138.25 325.64 80
5 07/18/2012 10:19:07 -0.30,-135.40 -0.66,-133.72 190.65 80
6 07/19/2012 22:38:25 0.32,-135.39 -0.47,-139.04 416.28 80
7 07/20/2012 22:22:20 0.31,-135.38 0.54,-134.51 99.89 80
8 07/23/2012 10:25:24 -0.32,-135.38 -0.36,-135.26 14.71 80
9 07/25/2012 22:25:56
